Year,Month,Day,Hour,Minute,Value (Times are PST for temperature in C)
2018,07,25,00,00,17.30
2018,07,25,00,01,17.30
2018,07,25,00,02,17.30
2018,07,25,00,03,17.30
2018,07,25,00,04,17.30
2018,07,25,00,05,17.30
2018,07,25,00,06,17.30
2018,07,25,00,07,17.30
2018,07,25,00,08,17.30
2018,07,25,00,09,17.30
2018,07,25,00,10,17.40
2018,07,25,00,11,17.40
2018,07,25,00,12,17.40
2018,07,25,00,13,17.40
2018,07,25,00,14,17.40
2018,07,25,00,15,17.50
2018,07,25,00,16,17.50
2018,07,25,00,17,17.50
2018,07,25,00,18,17.50
2018,07,25,00,19,17.50
2018,07,25,00,20,17.50
2018,07,25,00,21,17.50
2018,07,25,00,22,17.50
2018,07,25,00,23,17.60
2018,07,25,00,24,17.60
2018,07,25,00,25,17.60
2018,07,25,00,26,17.60
2018,07,25,00,27,17.60
2018,07,25,00,28,17.60
2018,07,25,00,29,17.60
2018,07,25,00,30,17.60
2018,07,25,00,31,17.60
2018,07,25,00,32,17.60
2018,07,25,00,33,17.60
2018,07,25,00,34,17.50
2018,07,25,00,35,17.50
2018,07,25,00,36,17.40
2018,07,25,00,37,17.40
2018,07,25,00,38,17.40
2018,07,25,00,39,17.30
2018,07,25,00,40,17.30
2018,07,25,00,41,17.30
2018,07,25,00,42,17.20
2018,07,25,00,43,17.20
2018,07,25,00,44,17.20
2018,07,25,00,45,17.10
2018,07,25,00,46,17.10
2018,07,25,00,47,17.10
2018,07,25,00,48,17.10
2018,07,25,00,49,17.00
2018,07,25,00,50,17.00
2018,07,25,00,51,17.00
2018,07,25,00,52,17.00
2018,07,25,00,53,16.90
2018,07,25,00,54,16.90
2018,07,25,00,55,16.90
2018,07,25,00,56,16.90
2018,07,25,00,57,16.90
2018,07,25,00,58,16.90
2018,07,25,00,59,16.80
2018,07,25,01,00,16.80
2018,07,25,01,01,16.80
2018,07,25,01,02,16.80
2018,07,25,01,03,16.80
2018,07,25,01,04,16.70
2018,07,25,01,05,16.70
2018,07,25,01,06,16.70
2018,07,25,01,07,16.70
2018,07,25,01,08,16.70
2018,07,25,01,09,16.60
2018,07,25,01,10,16.60
2018,07,25,01,11,16.60
2018,07,25,01,12,16.60
2018,07,25,01,13,16.60
2018,07,25,01,14,16.50
2018,07,25,01,15,16.50
2018,07,25,01,16,16.50
2018,07,25,01,17,16.40
2018,07,25,01,18,16.40
2018,07,25,01,19,16.40
2018,07,25,01,20,16.30
2018,07,25,01,21,16.30
2018,07,25,01,22,16.30
2018,07,25,01,23,16.20
2018,07,25,01,24,16.20
2018,07,25,01,25,16.20
2018,07,25,01,26,16.10
2018,07,25,01,27,16.10
2018,07,25,01,28,16.10
2018,07,25,01,29,16.10
2018,07,25,01,30,16.00
2018,07,25,01,31,16.00
2018,07,25,01,32,16.00
2018,07,25,01,33,15.90
2018,07,25,01,34,15.90
2018,07,25,01,35,15.90
2018,07,25,01,36,15.90
2018,07,25,01,37,15.90
2018,07,25,01,38,15.80
2018,07,25,01,39,15.80
2018,07,25,01,40,15.80
2018,07,25,01,41,15.80
2018,07,25,01,42,15.80
2018,07,25,01,43,15.80
2018,07,25,01,44,15.80
2018,07,25,01,45,15.80
2018,07,25,01,46,15.70
2018,07,25,01,47,15.70
2018,07,25,01,48,15.70
2018,07,25,01,49,15.70
2018,07,25,01,50,15.60
2018,07,25,01,51,15.60
2018,07,25,01,52,15.50
2018,07,25,01,53,15.50
2018,07,25,01,54,15.40
2018,07,25,01,55,15.40
2018,07,25,01,56,15.30
2018,07,25,01,57,15.30
2018,07,25,01,58,15.30
2018,07,25,01,59,15.30
2018,07,25,02,00,15.30
2018,07,25,02,01,15.20
2018,07,25,02,02,15.20
2018,07,25,02,03,15.20
2018,07,25,02,04,15.20
2018,07,25,02,05,15.20
2018,07,25,02,06,15.20
2018,07,25,02,07,15.20
2018,07,25,02,08,15.10
2018,07,25,02,09,15.10
2018,07,25,02,10,15.10
2018,07,25,02,11,15.10
2018,07,25,02,12,15.10
2018,07,25,02,13,15.10
2018,07,25,02,14,15.00
2018,07,25,02,15,15.00
2018,07,25,02,16,15.00
2018,07,25,02,17,14.90
2018,07,25,02,18,14.90
2018,07,25,02,19,14.90
2018,07,25,02,20,14.90
2018,07,25,02,21,14.90
2018,07,25,02,22,14.80
2018,07,25,02,23,14.80
2018,07,25,02,24,14.80
2018,07,25,02,25,14.80
2018,07,25,02,26,14.80
2018,07,25,02,27,14.70
2018,07,25,02,28,14.70
2018,07,25,02,29,14.70
2018,07,25,02,30,14.60
2018,07,25,02,31,14.60
2018,07,25,02,32,14.60
2018,07,25,02,33,14.50
2018,07,25,02,34,14.40
2018,07,25,02,35,14.40
2018,07,25,02,36,14.40
2018,07,25,02,37,14.40
2018,07,25,02,38,14.30
2018,07,25,02,39,14.30
2018,07,25,02,40,14.30
2018,07,25,02,41,14.30
2018,07,25,02,42,14.30
2018,07,25,02,43,14.20
2018,07,25,02,44,14.20
2018,07,25,02,45,14.20
2018,07,25,02,46,14.20
2018,07,25,02,47,14.20
2018,07,25,02,48,14.10
2018,07,25,02,49,14.10
2018,07,25,02,50,14.10
2018,07,25,02,51,14.10
2018,07,25,02,52,14.00
2018,07,25,02,53,14.00
2018,07,25,02,54,14.00
2018,07,25,02,55,13.90
2018,07,25,02,56,13.90
2018,07,25,02,57,13.90
2018,07,25,02,58,13.80
2018,07,25,02,59,13.80
2018,07,25,03,00,13.80
2018,07,25,03,01,13.80
2018,07,25,03,02,13.70
2018,07,25,03,03,13.70
2018,07,25,03,04,13.70
2018,07,25,03,05,13.70
2018,07,25,03,06,13.70
2018,07,25,03,07,13.60
2018,07,25,03,08,13.60
2018,07,25,03,09,13.60
2018,07,25,03,10,13.60
2018,07,25,03,11,13.60
2018,07,25,03,12,13.60
2018,07,25,03,13,13.50
2018,07,25,03,14,13.50
2018,07,25,03,15,13.50
2018,07,25,03,16,13.50
2018,07,25,03,17,13.50
2018,07,25,03,18,13.50
2018,07,25,03,19,13.50
2018,07,25,03,20,13.50
2018,07,25,03,21,13.40
2018,07,25,03,22,13.40
2018,07,25,03,23,13.40
2018,07,25,03,24,13.40
2018,07,25,03,25,13.40
2018,07,25,03,26,13.40
2018,07,25,03,27,13.40
2018,07,25,03,28,13.30
2018,07,25,03,29,13.30
2018,07,25,03,30,13.30
2018,07,25,03,31,13.40
2018,07,25,03,32,13.30
2018,07,25,03,33,13.40
2018,07,25,03,34,13.40
2018,07,25,03,35,13.40
2018,07,25,03,36,13.40
2018,07,25,03,37,13.40
2018,07,25,03,38,13.30
2018,07,25,03,39,13.30
2018,07,25,03,40,13.30
2018,07,25,03,41,13.30
2018,07,25,03,42,13.30
2018,07,25,03,43,13.30
2018,07,25,03,44,13.30
2018,07,25,03,45,13.30
2018,07,25,03,46,13.30
2018,07,25,03,47,13.30
2018,07,25,03,48,13.20
2018,07,25,03,49,13.20
2018,07,25,03,50,13.20
2018,07,25,03,51,13.20
2018,07,25,03,52,13.20
2018,07,25,03,53,13.20
2018,07,25,03,54,13.20
2018,07,25,03,55,13.20
2018,07,25,03,56,13.20
2018,07,25,03,57,13.20
2018,07,25,03,58,13.20
2018,07,25,03,59,13.20
2018,07,25,04,00,13.20
2018,07,25,04,01,13.20
2018,07,25,04,02,13.20
2018,07,25,04,03,13.20
2018,07,25,04,04,13.10
2018,07,25,04,05,13.10
2018,07,25,04,06,13.10
2018,07,25,04,07,13.10
2018,07,25,04,08,13.10
2018,07,25,04,09,13.10
2018,07,25,04,10,13.10
2018,07,25,04,11,13.10
2018,07,25,04,12,13.10
2018,07,25,04,13,13.10
2018,07,25,04,14,13.10
2018,07,25,04,15,13.00
2018,07,25,04,16,13.00
2018,07,25,04,17,13.00
2018,07,25,04,18,13.00
2018,07,25,04,19,13.00
2018,07,25,04,20,13.00
2018,07,25,04,21,13.00
2018,07,25,04,22,12.90
2018,07,25,04,23,12.90
2018,07,25,04,24,12.90
2018,07,25,04,25,12.90
2018,07,25,04,26,12.90
2018,07,25,04,27,12.90
2018,07,25,04,28,12.80
2018,07,25,04,29,12.80
2018,07,25,04,30,12.80
2018,07,25,04,31,12.80
2018,07,25,04,32,12.80
2018,07,25,04,33,12.80
2018,07,25,04,34,12.80
2018,07,25,04,35,12.80
2018,07,25,04,36,12.80
2018,07,25,04,37,12.80
2018,07,25,04,38,12.80
2018,07,25,04,39,12.80
2018,07,25,04,40,12.80
2018,07,25,04,41,12.80
2018,07,25,04,42,12.80
2018,07,25,04,43,12.70
2018,07,25,04,44,12.70
2018,07,25,04,45,12.80
2018,07,25,04,46,12.80
2018,07,25,04,47,12.80
2018,07,25,04,48,12.80
2018,07,25,04,49,12.70
2018,07,25,04,50,12.70
2018,07,25,04,51,12.70
2018,07,25,04,52,12.70
2018,07,25,04,53,12.70
2018,07,25,04,54,12.70
2018,07,25,04,55,12.70
2018,07,25,04,56,12.70
2018,07,25,04,57,12.70
2018,07,25,04,58,12.70
2018,07,25,04,59,12.70
2018,07,25,05,00,12.70
2018,07,25,05,01,12.70
2018,07,25,05,02,12.70
2018,07,25,05,03,12.70
2018,07,25,05,04,12.70
2018,07,25,05,05,12.60
2018,07,25,05,06,12.60
2018,07,25,05,07,12.60
2018,07,25,05,08,12.60
2018,07,25,05,09,12.60
2018,07,25,05,10,12.60
2018,07,25,05,11,12.60
2018,07,25,05,12,12.60
2018,07,25,05,13,12.50
2018,07,25,05,14,12.50
2018,07,25,05,15,12.50
2018,07,25,05,16,12.50
2018,07,25,05,17,12.50
2018,07,25,05,18,12.50
2018,07,25,05,19,12.50
2018,07,25,05,20,12.50
2018,07,25,05,21,12.50
2018,07,25,05,22,12.50
2018,07,25,05,23,12.50
2018,07,25,05,24,12.40
2018,07,25,05,25,12.40
2018,07,25,05,26,12.40
2018,07,25,05,27,12.40
2018,07,25,05,28,12.40
2018,07,25,05,29,12.40
2018,07,25,05,30,12.40
2018,07,25,05,31,12.40
2018,07,25,05,32,12.40
2018,07,25,05,33,12.30
2018,07,25,05,34,12.30
2018,07,25,05,35,12.30
2018,07,25,05,36,12.30
2018,07,25,05,37,12.30
2018,07,25,05,38,12.30
2018,07,25,05,39,12.30
2018,07,25,05,40,12.30
2018,07,25,05,41,12.30
2018,07,25,05,42,12.30
2018,07,25,05,43,12.30
2018,07,25,05,44,12.30
2018,07,25,05,45,12.30
2018,07,25,05,46,12.30
2018,07,25,05,47,12.30
2018,07,25,05,48,12.30
2018,07,25,05,49,12.30
2018,07,25,05,50,12.30
2018,07,25,05,51,12.30
2018,07,25,05,52,12.30
2018,07,25,05,53,12.30
2018,07,25,05,54,12.30
2018,07,25,05,55,12.30
2018,07,25,05,56,12.30
2018,07,25,05,57,12.30
2018,07,25,05,58,12.30
2018,07,25,05,59,12.30
2018,07,25,06,00,12.30
2018,07,25,06,01,12.20
2018,07,25,06,02,12.30
2018,07,25,06,03,12.20
2018,07,25,06,04,12.20
2018,07,25,06,05,12.30
2018,07,25,06,06,12.30
2018,07,25,06,07,12.30
2018,07,25,06,08,12.30
2018,07,25,06,09,12.30
2018,07,25,06,10,12.30
2018,07,25,06,11,12.30
2018,07,25,06,12,12.30
2018,07,25,06,13,12.30
2018,07,25,06,14,12.30
2018,07,25,06,15,12.30
2018,07,25,06,16,12.30
2018,07,25,06,17,12.30
2018,07,25,06,18,12.30
2018,07,25,06,19,12.30
2018,07,25,06,20,12.40
2018,07,25,06,21,12.40
2018,07,25,06,22,12.40
2018,07,25,06,23,12.40
2018,07,25,06,24,12.40
2018,07,25,06,25,12.40
2018,07,25,06,26,12.40
2018,07,25,06,27,12.50
2018,07,25,06,28,12.50
2018,07,25,06,29,12.50
2018,07,25,06,30,12.50
2018,07,25,06,31,12.50
2018,07,25,06,32,12.50
2018,07,25,06,33,12.60
2018,07,25,06,34,12.60
2018,07,25,06,35,12.60
2018,07,25,06,36,12.60
2018,07,25,06,37,12.60
2018,07,25,06,38,12.60
2018,07,25,06,39,12.60
2018,07,25,06,40,12.70
2018,07,25,06,41,12.70
2018,07,25,06,42,12.70
2018,07,25,06,43,12.70
2018,07,25,06,44,12.70
2018,07,25,06,45,12.80
2018,07,25,06,46,12.80
2018,07,25,06,47,12.90
2018,07,25,06,48,12.90
2018,07,25,06,49,13.00
2018,07,25,06,50,13.10
2018,07,25,06,51,13.10
2018,07,25,06,52,13.20
2018,07,25,06,53,13.30
2018,07,25,06,54,13.30
2018,07,25,06,55,13.40
2018,07,25,06,56,13.50
2018,07,25,06,57,13.50
2018,07,25,06,58,13.60
2018,07,25,06,59,13.70
2018,07,25,07,00,13.70
2018,07,25,07,01,13.80
2018,07,25,07,02,13.80
2018,07,25,07,03,13.90
2018,07,25,07,04,13.90
2018,07,25,07,05,13.90
2018,07,25,07,06,13.90
2018,07,25,07,07,13.90
2018,07,25,07,08,13.90
2018,07,25,07,09,13.80
2018,07,25,07,10,13.80
2018,07,25,07,11,13.80
2018,07,25,07,12,13.80
2018,07,25,07,13,13.80
2018,07,25,07,14,13.80
2018,07,25,07,15,13.80
2018,07,25,07,16,13.80
2018,07,25,07,17,13.80
2018,07,25,07,18,13.80
2018,07,25,07,19,13.80
2018,07,25,07,20,13.70
2018,07,25,07,21,13.70
2018,07,25,07,22,13.70
2018,07,25,07,23,13.70
2018,07,25,07,24,13.70
2018,07,25,07,25,13.70
2018,07,25,07,26,13.80
2018,07,25,07,27,13.80
2018,07,25,07,28,13.80
2018,07,25,07,29,13.90
2018,07,25,07,30,13.90
2018,07,25,07,31,13.90
2018,07,25,07,32,13.90
2018,07,25,07,33,13.90
2018,07,25,07,34,13.90
2018,07,25,07,35,13.90
2018,07,25,07,36,14.00
2018,07,25,07,37,14.10
2018,07,25,07,38,14.10
2018,07,25,07,39,14.20
2018,07,25,07,40,14.30
2018,07,25,07,41,14.30
2018,07,25,07,42,14.40
2018,07,25,07,43,14.50
2018,07,25,07,44,14.70
2018,07,25,07,45,14.80
2018,07,25,07,46,14.90
2018,07,25,07,47,14.90
2018,07,25,07,48,15.00
2018,07,25,07,49,15.10
2018,07,25,07,50,15.10
2018,07,25,07,51,15.20
2018,07,25,07,52,15.20
2018,07,25,07,53,15.20
2018,07,25,07,54,15.30
2018,07,25,07,55,15.40
2018,07,25,07,56,15.50
2018,07,25,07,57,15.60
2018,07,25,07,58,15.70
2018,07,25,07,59,15.70
2018,07,25,08,00,15.80
2018,07,25,08,01,15.90
2018,07,25,08,02,16.00
2018,07,25,08,03,16.10
2018,07,25,08,04,16.10
2018,07,25,08,05,16.20
2018,07,25,08,06,16.10
2018,07,25,08,07,16.00
2018,07,25,08,08,15.90
2018,07,25,08,09,15.80
2018,07,25,08,10,15.60
2018,07,25,08,11,15.50
2018,07,25,08,12,15.50
2018,07,25,08,13,15.40
2018,07,25,08,14,15.40
2018,07,25,08,15,15.30
2018,07,25,08,16,15.20
2018,07,25,08,17,15.20
2018,07,25,08,18,15.10
2018,07,25,08,19,15.10
2018,07,25,08,20,15.10
2018,07,25,08,21,15.10
2018,07,25,08,22,15.10
2018,07,25,08,23,15.10
2018,07,25,08,24,15.20
2018,07,25,08,25,15.20
2018,07,25,08,26,15.30
2018,07,25,08,27,15.30
2018,07,25,08,28,15.30
2018,07,25,08,29,15.30
2018,07,25,08,30,15.30
2018,07,25,08,31,15.30
2018,07,25,08,32,15.30
2018,07,25,08,33,15.30
2018,07,25,08,34,15.30
2018,07,25,08,35,15.30
2018,07,25,08,36,15.20
2018,07,25,08,37,15.10
2018,07,25,08,38,15.00
2018,07,25,08,39,14.80
2018,07,25,08,40,14.60
2018,07,25,08,41,14.40
2018,07,25,08,42,14.30
2018,07,25,08,43,14.30
2018,07,25,08,44,14.30
2018,07,25,08,45,14.30
2018,07,25,08,46,14.40
2018,07,25,08,47,14.40
2018,07,25,08,48,14.50
2018,07,25,08,49,14.50
2018,07,25,08,50,14.60
2018,07,25,08,51,14.70
2018,07,25,08,52,14.80
2018,07,25,08,53,14.90
2018,07,25,08,54,15.00
2018,07,25,08,55,15.00
2018,07,25,08,56,15.00
2018,07,25,08,57,14.90
2018,07,25,08,58,14.90
2018,07,25,08,59,15.00
2018,07,25,09,00,15.00
2018,07,25,09,01,15.10
2018,07,25,09,02,15.10
2018,07,25,09,03,15.10
2018,07,25,09,04,15.10
2018,07,25,09,05,15.00
2018,07,25,09,06,15.00
2018,07,25,09,07,15.00
2018,07,25,09,08,15.10
2018,07,25,09,09,15.20
2018,07,25,09,10,15.20
2018,07,25,09,11,15.30
2018,07,25,09,12,15.50
2018,07,25,09,13,15.60
2018,07,25,09,14,15.70
2018,07,25,09,15,15.80
2018,07,25,09,16,15.90
2018,07,25,09,17,15.90
2018,07,25,09,18,15.90
2018,07,25,09,19,15.90
2018,07,25,09,20,15.90
2018,07,25,09,21,15.90
2018,07,25,09,22,15.90
2018,07,25,09,23,15.90
2018,07,25,09,24,15.90
2018,07,25,09,25,15.90
2018,07,25,09,26,15.90
2018,07,25,09,27,16.00
2018,07,25,09,28,16.10
2018,07,25,09,29,16.10
2018,07,25,09,30,16.10
2018,07,25,09,31,16.10
2018,07,25,09,32,16.10
2018,07,25,09,33,16.20
2018,07,25,09,34,16.30
2018,07,25,09,35,16.30
2018,07,25,09,36,16.30
2018,07,25,09,37,16.30
2018,07,25,09,38,16.30
2018,07,25,09,39,16.30
2018,07,25,09,40,16.30
2018,07,25,09,41,16.30
2018,07,25,09,42,16.30
2018,07,25,09,43,16.30
2018,07,25,09,44,16.40
2018,07,25,09,45,16.50
2018,07,25,09,46,16.60
2018,07,25,09,47,16.70
2018,07,25,09,48,16.70
2018,07,25,09,49,16.70
2018,07,25,09,50,16.70
2018,07,25,09,51,16.70
2018,07,25,09,52,16.70
2018,07,25,09,53,16.70
2018,07,25,09,54,16.70
2018,07,25,09,55,16.60
2018,07,25,09,56,16.60
2018,07,25,09,57,16.60
2018,07,25,09,58,16.60
2018,07,25,09,59,16.60
2018,07,25,10,00,16.60
2018,07,25,10,01,16.60
2018,07,25,10,02,16.60
2018,07,25,10,03,16.60
2018,07,25,10,04,16.60
2018,07,25,10,05,16.60
2018,07,25,10,06,16.60
2018,07,25,10,07,16.60
2018,07,25,10,08,16.70
2018,07,25,10,09,16.70
2018,07,25,10,10,16.70
2018,07,25,10,11,16.70
2018,07,25,10,12,16.70
2018,07,25,10,13,16.70
2018,07,25,10,14,16.70
2018,07,25,10,15,16.80
2018,07,25,10,16,16.80
2018,07,25,10,17,16.80
2018,07,25,10,18,16.80
2018,07,25,10,19,16.90
2018,07,25,10,20,16.90
2018,07,25,10,21,16.90
2018,07,25,10,22,16.90
2018,07,25,10,23,17.00
2018,07,25,10,24,17.00
2018,07,25,10,25,17.10
2018,07,25,10,26,17.10
2018,07,25,10,27,17.10
2018,07,25,10,28,17.10
2018,07,25,10,29,17.10
2018,07,25,10,30,17.10
2018,07,25,10,31,17.10
2018,07,25,10,32,17.10
2018,07,25,10,33,17.20
2018,07,25,10,34,17.20
2018,07,25,10,35,17.30
2018,07,25,10,36,17.40
2018,07,25,10,37,17.40
2018,07,25,10,38,17.40
2018,07,25,10,39,17.40
2018,07,25,10,40,17.40
2018,07,25,10,41,17.30
2018,07,25,10,42,17.30
2018,07,25,10,43,17.40
2018,07,25,10,44,17.40
2018,07,25,10,45,17.30
2018,07,25,10,46,17.20
2018,07,25,10,47,17.10
2018,07,25,10,48,17.00
2018,07,25,10,49,16.90
2018,07,25,10,50,16.80
2018,07,25,10,51,16.70
2018,07,25,10,52,16.70
2018,07,25,10,53,16.60
2018,07,25,10,54,16.70
2018,07,25,10,55,16.80
2018,07,25,10,56,16.90
2018,07,25,10,57,17.00
2018,07,25,10,58,17.00
2018,07,25,10,59,17.00
2018,07,25,11,00,16.90
2018,07,25,11,01,16.90
2018,07,25,11,02,16.70
2018,07,25,11,03,16.60
2018,07,25,11,04,16.40
2018,07,25,11,05,16.30
2018,07,25,11,06,16.20
2018,07,25,11,07,16.00
2018,07,25,11,08,16.00
2018,07,25,11,09,15.90
2018,07,25,11,10,16.00
2018,07,25,11,11,16.20
2018,07,25,11,12,16.40
2018,07,25,11,13,16.50
2018,07,25,11,14,16.50
2018,07,25,11,15,16.60
2018,07,25,11,16,16.60
2018,07,25,11,17,16.70
2018,07,25,11,18,16.80
2018,07,25,11,19,16.90
2018,07,25,11,20,17.10
2018,07,25,11,21,17.30
2018,07,25,11,22,17.60
2018,07,25,11,23,17.80
2018,07,25,11,24,18.10
2018,07,25,11,25,18.20
2018,07,25,11,26,18.40
2018,07,25,11,27,18.50
2018,07,25,11,28,18.70
2018,07,25,11,29,18.80
2018,07,25,11,30,19.00
2018,07,25,11,31,19.20
2018,07,25,11,32,19.40
2018,07,25,11,33,19.50
2018,07,25,11,34,19.70
2018,07,25,11,35,19.80
2018,07,25,11,36,19.80
2018,07,25,11,37,19.90
2018,07,25,11,38,20.00
2018,07,25,11,39,20.10
2018,07,25,11,40,20.20
2018,07,25,11,41,20.20
2018,07,25,11,42,20.10
2018,07,25,11,43,20.10
2018,07,25,11,44,20.10
2018,07,25,11,45,20.20
2018,07,25,11,46,20.30
2018,07,25,11,47,20.40
2018,07,25,11,48,20.40
2018,07,25,11,49,20.50
2018,07,25,11,50,20.50
2018,07,25,11,51,20.60
2018,07,25,11,52,20.60
2018,07,25,11,53,20.70
2018,07,25,11,54,20.70
2018,07,25,11,55,20.80
2018,07,25,11,56,20.80
2018,07,25,11,57,20.90
2018,07,25,11,58,20.80
2018,07,25,11,59,20.80
2018,07,25,12,00,20.90
2018,07,25,12,01,20.90
2018,07,25,12,02,20.90
2018,07,25,12,03,20.90
2018,07,25,12,04,20.80
2018,07,25,12,05,20.60
2018,07,25,12,06,20.40
2018,07,25,12,07,20.30
2018,07,25,12,08,20.10
2018,07,25,12,09,20.00
2018,07,25,12,10,20.00
2018,07,25,12,11,20.10
2018,07,25,12,12,20.20
2018,07,25,12,13,20.20
2018,07,25,12,14,20.30
2018,07,25,12,15,20.40
2018,07,25,12,16,20.40
2018,07,25,12,17,20.50
2018,07,25,12,18,20.60
2018,07,25,12,19,20.60
2018,07,25,12,20,20.50
2018,07,25,12,21,20.40
2018,07,25,12,22,20.30
2018,07,25,12,23,20.20
2018,07,25,12,24,20.20
2018,07,25,12,25,20.20
2018,07,25,12,26,20.30
2018,07,25,12,27,20.40
2018,07,25,12,28,20.60
2018,07,25,12,29,20.70
2018,07,25,12,30,20.90
2018,07,25,12,31,21.00
2018,07,25,12,32,21.20
2018,07,25,12,33,21.20
2018,07,25,12,34,21.20
2018,07,25,12,35,21.10
2018,07,25,12,36,21.10
2018,07,25,12,37,21.10
2018,07,25,12,38,21.10
2018,07,25,12,39,21.20
2018,07,25,12,40,21.40
2018,07,25,12,41,21.60
2018,07,25,12,42,21.80
2018,07,25,12,43,21.90
2018,07,25,12,44,22.10
2018,07,25,12,45,22.20
2018,07,25,12,46,22.20
2018,07,25,12,47,22.10
2018,07,25,12,48,22.00
2018,07,25,12,49,21.90
2018,07,25,12,50,21.80
2018,07,25,12,51,21.70
2018,07,25,12,52,21.50
2018,07,25,12,53,21.20
2018,07,25,12,54,21.00
2018,07,25,12,55,20.80
2018,07,25,12,56,20.80
2018,07,25,12,57,20.70
2018,07,25,12,58,20.50
2018,07,25,12,59,20.30
2018,07,25,13,00,20.10
2018,07,25,13,01,20.10
2018,07,25,13,02,20.20
2018,07,25,13,03,20.20
2018,07,25,13,04,20.20
2018,07,25,13,05,20.20
2018,07,25,13,06,20.20
2018,07,25,13,07,20.10
2018,07,25,13,08,19.90
2018,07,25,13,09,19.70
2018,07,25,13,10,19.70
2018,07,25,13,11,19.80
2018,07,25,13,12,20.00
2018,07,25,13,13,20.30
2018,07,25,13,14,20.50
2018,07,25,13,15,20.80
2018,07,25,13,16,21.00
2018,07,25,13,17,21.20
2018,07,25,13,18,21.40
2018,07,25,13,19,21.60
2018,07,25,13,20,21.90
2018,07,25,13,21,22.10
2018,07,25,13,22,22.30
2018,07,25,13,23,22.50
2018,07,25,13,24,22.60
2018,07,25,13,25,22.60
2018,07,25,13,26,22.60
2018,07,25,13,27,22.50
2018,07,25,13,28,22.40
2018,07,25,13,29,22.40
2018,07,25,13,30,22.40
2018,07,25,13,31,22.50
2018,07,25,13,32,22.50
2018,07,25,13,33,22.60
2018,07,25,13,34,22.60
2018,07,25,13,35,22.60
2018,07,25,13,36,22.50
2018,07,25,13,37,22.50
2018,07,25,13,38,22.50
2018,07,25,13,39,22.40
2018,07,25,13,40,22.50
2018,07,25,13,41,22.50
2018,07,25,13,42,22.60
2018,07,25,13,43,22.70
2018,07,25,13,44,22.70
2018,07,25,13,45,22.70
2018,07,25,13,46,22.70
2018,07,25,13,47,22.70
2018,07,25,13,48,22.70
2018,07,25,13,49,22.70
2018,07,25,13,50,22.80
2018,07,25,13,51,22.80
2018,07,25,13,52,22.90
2018,07,25,13,53,22.90
2018,07,25,13,54,22.90
2018,07,25,13,55,22.90
2018,07,25,13,56,22.80
2018,07,25,13,57,22.80
2018,07,25,13,58,22.80
2018,07,25,13,59,22.80
2018,07,25,14,00,22.80
2018,07,25,14,01,22.70
2018,07,25,14,02,22.60
2018,07,25,14,03,22.50
2018,07,25,14,04,22.50
2018,07,25,14,05,22.50
2018,07,25,14,06,22.50
2018,07,25,14,07,22.50
2018,07,25,14,08,22.60
2018,07,25,14,09,22.60
2018,07,25,14,10,22.70
2018,07,25,14,11,22.60
2018,07,25,14,12,22.60
2018,07,25,14,13,22.50
2018,07,25,14,14,22.40
2018,07,25,14,15,22.40
2018,07,25,14,16,22.30
2018,07,25,14,17,22.20
2018,07,25,14,18,22.10
2018,07,25,14,19,22.10
2018,07,25,14,20,22.10
2018,07,25,14,21,22.20
2018,07,25,14,22,22.20
2018,07,25,14,23,22.20
2018,07,25,14,24,22.30
2018,07,25,14,25,22.40
2018,07,25,14,26,22.50
2018,07,25,14,27,22.60
2018,07,25,14,28,22.80
2018,07,25,14,29,22.90
2018,07,25,14,30,22.90
2018,07,25,14,31,22.90
2018,07,25,14,32,22.90
2018,07,25,14,33,22.80
2018,07,25,14,34,22.70
2018,07,25,14,35,22.70
2018,07,25,14,36,22.70
2018,07,25,14,37,22.70
2018,07,25,14,38,22.70
2018,07,25,14,39,22.70
2018,07,25,14,40,22.70
2018,07,25,14,41,22.70
2018,07,25,14,42,22.80
2018,07,25,14,43,22.90
2018,07,25,14,44,22.90
2018,07,25,14,45,22.90
2018,07,25,14,46,23.00
2018,07,25,14,47,23.00
2018,07,25,14,48,23.00
2018,07,25,14,49,22.90
2018,07,25,14,50,22.80
2018,07,25,14,51,22.70
2018,07,25,14,52,22.70
2018,07,25,14,53,22.60
2018,07,25,14,54,22.40
2018,07,25,14,55,22.30
2018,07,25,14,56,22.10
2018,07,25,14,57,21.90
2018,07,25,14,58,21.80
2018,07,25,14,59,21.70
2018,07,25,15,00,21.60
2018,07,25,15,01,21.60
2018,07,25,15,02,21.60
2018,07,25,15,03,21.60
2018,07,25,15,04,21.60
2018,07,25,15,05,21.70
2018,07,25,15,06,21.80
2018,07,25,15,07,21.80
2018,07,25,15,08,21.90
2018,07,25,15,09,22.00
2018,07,25,15,10,22.10
2018,07,25,15,11,22.10
2018,07,25,15,12,22.20
2018,07,25,15,13,22.20
2018,07,25,15,14,22.20
2018,07,25,15,15,22.20
2018,07,25,15,16,22.10
2018,07,25,15,17,22.10
2018,07,25,15,18,22.10
2018,07,25,15,19,22.10
2018,07,25,15,20,22.10
2018,07,25,15,21,22.10
2018,07,25,15,22,22.10
2018,07,25,15,23,22.10
2018,07,25,15,24,22.10
2018,07,25,15,25,22.20
2018,07,25,15,26,22.20
2018,07,25,15,27,22.20
2018,07,25,15,28,22.20
2018,07,25,15,29,22.30
2018,07,25,15,30,22.40
2018,07,25,15,31,22.50
2018,07,25,15,32,22.60
2018,07,25,15,33,22.70
2018,07,25,15,34,22.70
2018,07,25,15,35,22.80
2018,07,25,15,36,22.80
2018,07,25,15,37,22.90
2018,07,25,15,38,22.90
2018,07,25,15,39,22.90
2018,07,25,15,40,22.80
2018,07,25,15,41,22.80
2018,07,25,15,42,22.90
2018,07,25,15,43,22.90
2018,07,25,15,44,22.80
2018,07,25,15,45,22.80
2018,07,25,15,46,22.90
2018,07,25,15,47,22.90
2018,07,25,15,48,23.00
2018,07,25,15,49,23.10
2018,07,25,15,50,23.10
2018,07,25,15,51,23.00
2018,07,25,15,52,22.90
2018,07,25,15,53,22.80
2018,07,25,15,54,22.80
2018,07,25,15,55,22.80
2018,07,25,15,56,22.80
2018,07,25,15,57,22.90
2018,07,25,15,58,22.90
2018,07,25,15,59,22.90
2018,07,25,16,00,22.80
2018,07,25,16,01,22.80
2018,07,25,16,02,22.70
2018,07,25,16,03,22.70
2018,07,25,16,04,22.70
2018,07,25,16,05,22.80
2018,07,25,16,06,22.90
2018,07,25,16,07,22.90
2018,07,25,16,08,22.90
2018,07,25,16,09,22.90
2018,07,25,16,10,22.80
2018,07,25,16,11,22.80
2018,07,25,16,12,22.80
2018,07,25,16,13,22.70
2018,07,25,16,14,22.70
2018,07,25,16,15,22.60
2018,07,25,16,16,22.60
2018,07,25,16,17,22.60
2018,07,25,16,18,22.50
2018,07,25,16,19,22.40
2018,07,25,16,20,22.20
2018,07,25,16,21,22.00
2018,07,25,16,22,21.90
2018,07,25,16,23,21.80
2018,07,25,16,24,21.70
2018,07,25,16,25,21.50
2018,07,25,16,26,21.30
2018,07,25,16,27,21.20
2018,07,25,16,28,21.20
2018,07,25,16,29,21.30
2018,07,25,16,30,21.40
2018,07,25,16,31,21.60
2018,07,25,16,32,21.70
2018,07,25,16,33,21.90
2018,07,25,16,34,22.00
2018,07,25,16,35,22.10
2018,07,25,16,36,22.20
2018,07,25,16,37,22.30
2018,07,25,16,38,22.30
2018,07,25,16,39,22.40
2018,07,25,16,40,22.40
2018,07,25,16,41,22.50
2018,07,25,16,42,22.60
2018,07,25,16,43,22.70
2018,07,25,16,44,22.80
2018,07,25,16,45,23.00
2018,07,25,16,46,23.10
2018,07,25,16,47,23.10
2018,07,25,16,48,23.10
2018,07,25,16,49,23.00
2018,07,25,16,50,22.90
2018,07,25,16,51,22.70
2018,07,25,16,52,22.60
2018,07,25,16,53,22.50
2018,07,25,16,54,22.30
2018,07,25,16,55,22.20
2018,07,25,16,56,22.00
2018,07,25,16,57,21.90
2018,07,25,16,58,21.70
2018,07,25,16,59,21.60
2018,07,25,17,00,21.50
2018,07,25,17,01,21.50
2018,07,25,17,02,21.50
2018,07,25,17,03,21.40
2018,07,25,17,04,21.40
2018,07,25,17,05,21.50
2018,07,25,17,06,21.50
2018,07,25,17,07,21.60
2018,07,25,17,08,21.60
2018,07,25,17,09,21.50
2018,07,25,17,10,21.30
2018,07,25,17,11,21.30
2018,07,25,17,12,21.30
2018,07,25,17,13,21.20
2018,07,25,17,14,21.20
2018,07,25,17,15,21.10
2018,07,25,17,16,21.10
2018,07,25,17,17,21.10
2018,07,25,17,18,21.10
2018,07,25,17,19,21.20